TimePDT,TemperatureF,Dew PointF,Humidity,Sea Level PressureIn,VisibilityMPH,Wind Direction,Wind SpeedMPH,Gust SpeedMPH,PrecipitationIn,Events,Conditions,WindDirDegrees,DateUTC
12:43 AM,55.4,53.6,94,29.79,10.0,SSW,11.5,-,N/A,,Partly Cloudy,200,2013-07-07 07:43:00
12:54 AM,55.9,53.1,90,29.77,10.0,SSW,12.7,-,N/A,,Partly Cloudy,210,2013-07-07 07:54:00
1:54 AM,55.9,53.1,90,29.78,10.0,SW,6.9,-,N/A,,Mostly Cloudy,220,2013-07-07 08:54:00
2:43 AM,55.4,51.8,88,29.79,10.0,SSE,4.6,-,N/A,,Partly Cloudy,150,2013-07-07 09:43:00
2:54 AM,55.0,52.0,89,29.77,10.0,South,3.5,-,N/A,,Scattered Clouds,170,2013-07-07 09:54:00
3:54 AM,53.1,51.1,93,29.78,8.0,West,6.9,-,N/A,,Mostly Cloudy,260,2013-07-07 10:54:00
4:07 AM,53.6,51.8,94,29.80,9.0,West,4.6,-,N/A,,Mostly Cloudy,270,2013-07-07 11:07:00
4:54 AM,54.0,52.0,93,29.78,9.0,West,4.6,-,N/A,,Overcast,280,2013-07-07 11:54:00
5:54 AM,54.0,51.1,90,29.79,10.0,WSW,4.6,-,N/A,,Overcast,250,2013-07-07 12:54:00
6:54 AM,54.0,51.1,90,29.81,7.0,WSW,4.6,-,N/A,,Overcast,250,2013-07-07 13:54:00
7:54 AM,54.0,51.1,90,29.82,8.0,West,5.8,-,N/A,,Overcast,270,2013-07-07 14:54:00
8:54 AM,55.0,51.1,86,29.83,9.0,West,6.9,-,N/A,,Overcast,260,2013-07-07 15:54:00
9:54 AM,57.0,52.0,83,29.83,10.0,WSW,3.5,-,N/A,,Overcast,240,2013-07-07 16:54:00
10:35 AM,60.8,51.8,72,29.85,10.0,Variable,6.9,-,N/A,,Overcast,0,2013-07-07 17:35:00
10:54 AM,61.0,52.0,72,29.83,10.0,Variable,3.5,-,N/A,,Scattered Clouds,0,2013-07-07 17:54:00
11:54 AM,66.0,53.1,63,29.82,10.0,South,6.9,-,N/A,,Clear,190,2013-07-07 18:54:00
12:54 PM,70.0,54.0,57,29.81,10.0,SSW,8.1,-,N/A,,Clear,200,2013-07-07 19:54:00
1:54 PM,73.0,54.0,51,29.79,10.0,SSW,9.2,-,N/A,,Clear,200,2013-07-07 20:54:00
2:54 PM,75.9,55.0,48,29.78,10.0,SSW,11.5,-,N/A,,Clear,210,2013-07-07 21:54:00
3:54 PM,73.9,54.0,50,29.77,10.0,SSW,15.0,-,N/A,,Clear,200,2013-07-07 22:54:00
4:54 PM,73.0,55.9,55,29.76,10.0,SSW,13.8,-,N/A,,Clear,210,2013-07-07 23:54:00
5:54 PM,71.1,55.9,59,29.75,10.0,SSW,15.0,-,N/A,,Clear,200,2013-07-08 00:54:00
6:54 PM,68.0,55.0,63,29.76,10.0,South,15.0,-,N/A,,Clear,190,2013-07-08 01:54:00
7:54 PM,64.9,55.0,70,29.77,10.0,South,12.7,-,N/A,,Clear,190,2013-07-08 02:54:00
8:54 PM,61.0,51.1,70,29.80,10.0,WSW,3.5,-,N/A,,Clear,250,2013-07-08 03:54:00
9:54 PM,55.9,51.1,84,29.83,10.0,West,3.5,-,N/A,,Clear,260,2013-07-08 04:54:00
10:54 PM,55.9,51.1,84,29.83,10.0,Calm,Calm,-,N/A,,Clear,0,2013-07-08 05:54:00
11:54 PM,53.1,51.1,93,29.84,10.0,West,6.9,-,N/A,,Clear,270,2013-07-08 06:54:00